Location: Bredenbekshorst
(53.8651°N, 10.0784°E)
Time: 19:31:34
(UTC+00:00)

Daily predictions for brighter satellites

Satellite Brightness Start Highest point End
(mag) Time Altitude Azimuth Time Altitude Azimuth Time Altitude Azimuth
Cosmos 1602 4.1 17:40:13 10° SSW 17:44:07 74° W 17:48:05 10° N
Cosmos 1980 Rocket 3.8 17:39:11 10° WSW 17:44:21 34° NW 17:49:33 10° NNE
SeaSat 1 3.9 17:41:28 10° ENE 17:44:32 16° ESE 17:47:35 10° SE
IRS-1C Rocket 4.3 17:39:38 10° SSE 17:44:55 84° WSW 17:50:15 10° NNW
FALCON 9 DEB 3.6 17:42:14 10° W 17:45:20 49° SSW 17:48:24 10° ESE
Cosmos 2242 Rocket 3.6 17:41:17 10° N 17:45:48 71° ENE 17:50:15 10° SSE
Cosmos 1536 4.2 17:43:26 10° SE 17:46:09 18° E 17:48:52 10° NE
MOS 1 Rocket 3.8 17:42:07 10° NNE 17:47:16 81° WNW 17:52:38 10° SSW
Cosmos 1633 Rocket 3.6 17:43:16 10° SSW 17:47:41 66° WNW 17:52:07 10° N
Gbstr 26 Del rocket 3.4 17:45:48 10° W 17:50:07 68° S 17:55:26 10° ESE
Abrixas rocket 3.9 17:52:08 10° WSW 17:53:51 17° SSW 17:55:34 10° SSE
Cosmos 2333 Rocket 2.8 17:50:05 10° S 17:55:14 36° ESE 18:00:26 10° NE
Meteor 2-4 Rocket 4.0 17:50:46 10° NNW 17:56:40 84° W 18:02:37 10° S
Resurs 01 Rocket 3.5 17:54:31 10° E 17:56:44 14° NE 17:58:56 10° NNE
Cosmos 1295 Rocket 4.5 17:50:51 10° S 17:57:03 80° E 18:03:14 10° NNE
Cosmos 2322 Rocket 2.5 17:55:37 10° SW 18:01:14 71° NW 18:06:53 10° NNE
Helios 1A Rocket 2.8 17:57:25 10° SSE 18:01:26 67° ENE 18:05:28 10° N
Lacrosse 4 Rocket 2.2 17:58:21 10° S 18:02:20 34° ESE 18:06:25 10° NE
GP-B 3.1 17:59:08 10° SSE 18:03:30 59° E 18:07:53 10° N
ARGOS 3.2 18:00:16 10° SSE 18:05:43 88° ENE 18:11:12 10° NNW
Cosmos 1992 Rocket 4.3 18:00:59 10° SSW 18:06:13 72° WNW 18:11:28 10° NNE
ERBS 2.9 18:03:13 10° W 18:06:27 49° N 18:09:27 12° ENE
CZ-4B R/B 1.9 18:05:41 10° N 18:08:42 56° WNW 18:11:44 10° SSW
Cosmos 1869 Rocket 3.9 18:05:55 10° SSE 18:10:02 42° E 18:14:14 10° NNE
CZ-4 R/B 2.3 18:07:17 10° S 18:11:07 52° W 18:15:02 10° NNW
Cosmos 2219 Rocket 2.5 18:06:27 10° S 18:11:40 42° ESE 18:16:55 10° NE
ERS-2 2.2 18:09:37 10° NNE 18:13:14 52° ESE 18:16:48 10° S
CZ-2C R/B 2.9 18:08:10 10° NNE 18:13:28 48° E 18:18:36 10° S
FALCON 9 DEB 4.2 18:10:58 10° W 18:13:54 35° SSW 18:16:47 10° SE
Cosmos 2154 Rocket 4.4 18:08:15 10° SSW 18:14:26 70° WNW 18:20:39 10° N
Cosmos 1689 Rocket 2.0 18:12:00 10° NNE 18:14:51 57° ESE 18:17:42 10° S
Cosmos 1378 3.3 18:13:28 10° N 18:17:08 50° ENE 18:20:45 10° SSE
Cosmos 1238 Rocket 3.6 18:15:00 10° SSE 18:18:11 25° E 18:21:00 10° NE
H-2A R/B 4.0 18:15:26 10° N 18:19:03 31° WNW 18:22:41 10° SW
USA 305 3.0 18:14:58 10° W 18:19:16 73° SSW 18:22:40 16° ESE
SL-08 RB Rocket 3.7 18:16:02 10° SSE 18:20:36 87° ENE 18:25:15 10° NNW
FALCON 9 DEB 4.2 18:20:24 10° W 18:23:22 35° SSW 18:25:51 13° SE
NOSS 3-2 (A) 4.2 18:19:25 10° S 18:24:13 28° ESE 18:29:35 10° ENE
HJ-1C 4.0 18:21:55 10° S 18:25:10 57° W 18:28:27 10° NNW
COSMOS 2428 3.0 18:21:00 10° S 18:26:23 45° ESE 18:31:48 10° NE
Cosmos 1733 Rocket 4.1 18:23:59 10° SE 18:27:28 24° E 18:30:59 10° NNE
SL-16 R/B 3.4 18:24:19 10° WSW 18:29:44 43° NW 18:35:10 10° NNE
Meteor 2-20 4.5 18:26:34 10° N 18:32:38 60° ENE 18:38:41 10° SSE
Cosmos 2369 Rocket 3.8 18:28:49 10° NNW 18:32:59 21° NNE 18:36:12 13° ENE
USA 307 3.0 18:28:44 10° WNW 18:33:01 68° SSW 18:35:52 20° ESE
USA 306 3.1 18:30:00 10° WNW 18:34:16 67° SSW 18:37:06 20° ESE
Cosmos 1066 Rocket 4.2 18:29:38 10° NNW 18:35:25 83° ENE 18:41:17 10° SSE
Cosmos 1898 Rocket 3.8 18:30:27 10° NNW 18:35:31 47° NE 18:39:11 18° ESE
SL-8 Rocket 3.9 18:29:19 10° S 18:35:31 78° E 18:41:43 10° NNE
CENTAUR R/B 3.4 18:31:17 10° SSE 18:36:05 25° ESE 18:41:32 10° ENE
ATLAS CENTAUR R/B 1.9 18:33:46 10° WSW 18:37:20 50° NW 18:41:02 10° NE
Cosmos 1743 3.4 18:38:30 10° SSE 18:41:58 32° E 18:45:28 10° NNE
Cosmos 1666 3.0 18:40:03 10° SSW 18:43:45 66° WNW 18:47:31 10° N
USA 308 3.1 18:39:33 10° WNW 18:43:48 63° SSW 18:46:15 24° SE
Meteor 1-23 Rocket 4.1 18:40:13 10° NNW 18:45:52 79° ENE 18:51:32 10° SSE
CSL-04 Rocket 4.3 18:41:20 10° S 18:46:48 59° WSW 18:52:13 10° NNW
Cosmos 2322 3.7 18:41:31 10° SSW 18:47:15 85° ESE 18:53:00 10° NNE
ASTEX 1 3.4 18:45:03 10° NNE 18:49:53 56° E 18:54:41 10° S
Cosmos 1674 Rocket 3.8 18:49:06 10° N 18:53:17 46° ENE 18:55:15 27° SE
Cosmos 2366 rocket 4.0 18:47:26 10° S 18:53:47 85° E 19:00:12 10° NNE
H-2A R/B 4.0 18:49:27 10° SSW 18:54:18 32° W 18:59:09 10° NNW
Cosmos 990 Rocket 3.9 18:50:54 10° NNW 18:56:06 73° ENE 18:59:40 20° SE
SJ-6B 2.8 18:52:44 10° SSE 18:56:47 86° ENE 19:00:48 10° NNW
Cosmos 2221 Rocket 3.5 18:52:53 10° N 18:57:20 87° ENE 19:01:48 10° S
Cosmos 2297 4.2 18:54:38 10° NNW 19:00:08 44° NE 19:02:39 28° E
Ariane Rocket 2.9 18:55:34 12° SSE 19:00:22 76° ENE 19:05:30 10° NNW
USA 186 2.0 18:59:37 20° S 19:01:05 50° W 19:03:44 10° NNW
ARIANE 5 R/B 4.1 19:01:45 21° ENE 19:01:59 21° ENE 19:05:24 10° N
OBJECT-B 0.7 19:02:10 29° SSE 19:03:42 90° E 19:06:57 10° NNW
Cosmos 1763 Rocket 4.2 18:59:12 10° SSE 19:03:51 31° ESE 19:08:30 10° NE
Okean 2 4.0 19:00:42 10° N 19:04:31 35° ENE 19:04:48 35° E
NOSS 3-2 (C) 4.0 19:00:51 10° S 19:05:51 32° ESE 19:08:11 25° E
SL-08 R/B 4.5 19:00:26 10° S 19:06:51 69° E 19:13:17 10° NNE
Meteor 1-11 Rocket 3.8 19:02:05 10° SSW 19:07:45 81° WNW 19:13:20 10° NNE
Cosmos 1378 Rocket 3.7 19:03:23 10° N 19:07:47 54° ENE 19:09:21 35° SE
Cosmos 2360 Rocket 3.4 19:06:27 10° WSW 19:11:51 44° NW 19:17:17 10° NNE
Cosmos 1975 Rocket 4.4 19:09:26 10° N 19:12:45 24° NE 19:12:45 24° NE
Cosmos 1707 4.2 19:10:03 10° N 19:12:28 23° NE 19:12:28 23° NE
Cosmos 1943 Rocket 2.8 19:08:14 10° NNW 19:13:35 40° NE 19:15:25 31° E
SJ 16-02 2.3 19:10:52 10° NW 19:15:06 46° WSW 19:19:18 10° S
Cosmos 1727 Rocket 4.2 19:08:58 10° NNW 19:15:09 71° W 19:21:19 10° S
Cosmos 468 Rocket 4.4 19:10:33 10° S 19:15:27 39° ESE 19:20:21 10° NE
DMSP B5D2-2 4.0 19:10:39 10° NNE 19:15:55 87° WNW 19:21:08 10° SSW
Cosmos 858 Rocket 4.4 19:11:34 10° NNW 19:16:46 66° ENE 19:18:46 37° SE
Cosmos 2278 Rocket 2.7 19:11:51 10° NW 19:17:27 59° WSW 19:22:11 14° S
Cosmos 1821 Rocket 3.9 19:11:55 10° S 19:18:00 62° E 19:24:03 10° NNE
Cosmos 2237 Rocket 2.4 19:13:24 10° S 19:18:47 45° ESE 19:24:12 10° NE
Cosmos 1544 2.9 19:16:03 10° S 19:19:42 83° E 19:23:24 10° NNE
Cosmos 1000 Rocket 4.4 19:13:32 10° N 19:19:52 81° ENE 19:25:17 15° SSE
Meteor 1-21 4.3 19:15:08 10° N 19:20:48 58° ENE 19:23:05 35° SE
MOS 1 4.4 19:15:42 10° SSE 19:21:19 79° WSW 19:27:02 10° NNW
Cosmos 1536 3.5 19:18:15 10° SSW 19:22:10 55° WNW 19:26:06 10° N
SeaSat 1 2.3 19:17:47 10° NE 19:22:46 80° ESE 19:27:42 10° SSW
USA 81 3.9 19:18:28 10° S 19:23:42 71° E 19:28:58 10° N
SWAS 4.3 19:20:02 10° SSW 19:24:21 87° ESE 19:28:42 10° NE
SPOT 3 Rocket 3.5 19:24:24 36° SE 19:26:29 68° ENE 19:31:43 10° NNW
Cosmos 2239 Rocket 4.5 19:21:33 10° S 19:27:43 61° E 19:33:52 10° NNE
SME Rocket 4.0 19:22:25 10° NNE 19:30:32 85° ESE 19:35:44 10° SSW
Cosmos 1934 Rocket 4.1 19:30:06 37° SE 19:31:53 47° E 19:37:46 10° NNE
Resurs 01 Rocket 1.5 19:31:41 56° SE 19:32:29 72° ENE 19:36:54 10° NNW
USA 234 3.6 19:33:09 37° ESE 19:33:47 38° SE 19:39:46 10° SSW
SPOT 1/Viking Rocket 3.8 19:33:55 44° E 19:34:29 46° ENE 19:39:26 10° N
Gbstr 26 Del rocket 4.2 19:32:18 10° W 19:36:48 41° SSW 19:38:19 34° SSE
Cosmos 1937 Rocket 3.4 19:32:59 10° NNW 19:38:11 87° WSW 19:39:49 45° SSE
Cosmos 2123 Rocket 3.9 19:32:07 10° N 19:38:24 72° ENE 19:41:01 37° SSE
Cosmos 2333 Rocket 2.9 19:33:45 10° SW 19:39:21 54° NW 19:45:01 10° NNE
Lacrosse 4 Rocket 2.5 19:36:38 10° WSW 19:40:56 47° NW 19:45:20 10° NNE
ERBS 3.1 19:39:38 10° WNW 19:42:16 47° NW 19:42:16 47° NW
IGS 5A 3.4 19:44:27 67° NE 19:44:27 67° NE 19:48:19 10° N
SPOT 5 4.0 19:45:45 26° NE 19:45:45 26° NE 19:48:35 10° N
Cosmos 1842 3.2 19:41:08 10° NNW 19:45:05 78° W 19:45:12 76° WSW
USA 238 DEB 3.5 19:39:00 10° SSW 19:45:32 68° SE 19:52:28 10° NE
USA 238 3.5 19:39:07 10° SSW 19:45:39 68° SE 19:52:34 10° NE
Cosmos 2322 Rocket 4.4 19:41:51 10° W 19:46:17 23° NNW 19:50:46 10° NNE
Resurs 1-3 4.2 19:45:27 31° SSW 19:47:22 56° W 19:51:44 10° NNW
CZ-2C R/B 4.2 19:48:42 10° N 19:53:38 36° WNW 19:58:28 10° SW
Cosmos 2219 Rocket 3.1 19:50:12 10° WSW 19:55:36 48° NW 20:01:04 10° NNE
USA 305 4.3 19:55:10 10° W 19:58:46 28° SW 19:58:46 28° SW
Terra 3.2 20:00:53 27° NE 20:00:53 27° NE 20:03:51 10° N
ERS-1 Rocket 3.6 20:03:06 41° NE 20:03:06 41° NE 20:07:09 10° N
Cosmos 1980 3.6 19:57:48 10° SSW 20:03:27 89° SE 20:09:10 10° NNE
Cosmos 1733 Rocket 4.0 20:00:49 10° SSW 20:05:01 47° WNW 20:09:17 10° N
Cosmos 1656 Rocket 4.4 20:02:05 10° NNW 20:07:03 36° NE 20:07:03 36° NE
COSMOS 2428 3.7 20:05:16 10° WSW 20:10:43 45° NW 20:16:13 10° NNE
Meteor 2-9 Rocket 3.9 20:10:29 66° SSW 20:11:17 89° WNW 20:16:38 10° NNE
Spot 2 Rocket 3.5 20:14:35 73° NNE 20:14:35 73° NNE 20:19:23 10° NNW
NOSS 3-2 (A) 3.4 20:08:28 10° SW 20:14:20 82° NW 20:21:14 10° NE
Cosmos 1605 Rocket 4.0 20:15:57 63° E 20:15:57 63° E 20:22:06 10° NNE
ATLAS CENTAUR R/B 3.5 20:14:15 10° WNW 20:17:00 19° NNW 20:17:47 18° N
Cosmos 2369 Rocket 2.3 20:12:39 10° NNW 20:18:00 59° NE 20:18:00 59° NE
NOSS 0 Rocket 4.2 20:17:52 10° SW 20:24:00 66° NW 20:30:10 10° NNE
CENTAUR R/B 2.5 20:19:34 10° SW 20:25:44 87° SE 20:33:13 10° NE
Cosmos 372 Rocket 4.4 20:30:46 10° NNW 20:35:35 55° W 20:35:35 55° W
ARIANE 5 R/B 3.6 20:39:17 45° NW 20:39:17 45° NW 20:42:33 10° NNW
Cosmos 1447 Rocket 4.4 20:35:34 10° NNW 20:41:49 85° W 20:41:51 85° WSW
ATLAS 5 CENTAUR R/B 4.2 20:38:49 10° WNW 20:40:39 18° NW 20:40:39 18° NW
Cosmos 2150 Rocket 4.4 20:37:53 10° NNW 20:42:31 64° NNW 20:42:31 64° NNW
Cosmos 2297 4.3 20:38:56 10° NW 20:44:26 48° WSW 20:44:36 48° WSW
Cosmos 1763 Rocket 4.2 20:40:15 10° SW 20:45:28 54° WNW 20:50:41 10° NNE
Cosmos 1125 Rocket 4.2 20:47:55 10° NNW 20:51:54 51° NNW 20:51:54 51° NNW
USA 281 3.5 20:54:08 54° NE 20:54:08 54° NE 21:00:15 10° NNW
NOSS 3-2 (C) 3.5 20:50:17 10° SW 21:02:27 13° NE 21:03:07 10° NE
Cosmos 1943 Rocket 2.8 20:52:02 10° NW 20:56:57 51° W 20:56:57 51° W
SeaSat 1 4.3 20:55:44 10° NNE 20:59:54 28° NW 21:04:05 10° W
Cosmos 2237 Rocket 3.2 20:57:27 10° WSW 21:02:55 45° NW 21:08:25 10° NNE
Resurs 01 Rocket 4.0 21:09:14 17° W 21:09:29 17° W 21:12:27 10° NW
USA 234 4.3 21:20:31 34° WSW 21:20:31 34° WSW 21:23:55 10° WSW
Lacrosse 4 Rocket 4.2 21:17:36 10° WNW 21:20:41 18° NNW 21:22:05 16° N
SL-16 R/B 4.2 21:29:38 20° NNE 21:29:38 20° NNE 21:31:20 10° NNE
USA 238 DEB 4.4 21:30:18 10° W 21:36:51 51° NNW 21:43:46 10° NE
USA 238 4.3 21:30:24 10° W 21:36:57 51° NNW 21:43:52 10° NE
Terra 3.8 21:39:46 25° NW 21:39:46 25° NW 21:41:57 10° NNW
Cosmos 2369 Rocket 4.1 21:57:03 10° NW 21:59:48 24° WNW 21:59:48 24° WNW
CENTAUR R/B 3.6 22:10:49 10° W 22:17:11 46° NNW 22:24:45 10° NE
Cosmos 1980 Rocket 4.2 22:57:31 10° NNW 23:00:19 24° N 23:00:19 24° N
SL-16 R/B 4.3 23:11:26 22° NNW 23:11:26 22° NNW 23:15:17 10° NNE
Cosmos 2322 Rocket 4.5 23:15:04 10° NNW 23:18:59 19° NNE 23:19:21 19° NNE
ATLAS 3B R/B 4.0 23:35:00 33° NNE 23:35:00 33° NNE 23:39:04 10° NE
SL-16 R/B 4.3 23:43:27 10° NNW 23:46:41 23° N 23:46:41 23° N
